Time,TemperatureF,DewpointF,PressureIn,WindDirection,WindDirectionDegrees,WindSpeedMPH,WindSpeedGustMPH,Humidity,HourlyPrecipIn,Conditions,Clouds,dailyrainin,SolarRadiationWatts/m^2,SoftwareType,DateUTC
2013-03-11 00:00:00,46.1,41.8,29.42,WSW,251,1.0,5.0,85,0.00,,---,0.00,0.00,VWS V14.01,2013-03-10 23:00:00,
2013-03-11 00:10:00,45.9,42.0,29.42,WSW,245,5.0,7.0,86,0.00,,---,0.00,0.00,VWS V14.01,2013-03-10 23:10:00,
2013-03-11 00:15:00,45.8,42.2,29.42,SW,223,0.0,4.0,87,0.00,,---,0.00,0.00,VWS V14.01,2013-03-10 23:15:00,
2013-03-11 00:20:00,45.7,42.1,29.42,West,261,2.0,5.0,87,0.00,,---,0.00,0.00,VWS V14.01,2013-03-10 23:20:00,
2013-03-11 00:25:00,45.7,42.1,29.42,WSW,254,5.0,7.0,87,0.00,,---,0.00,0.00,VWS V14.01,2013-03-10 23:25:00,
2013-03-11 00:35:00,45.6,42.0,29.42,West,263,1.0,5.0,87,0.00,,---,0.00,0.00,VWS V14.01,2013-03-10 23:35:00,
2013-03-11 00:40:00,45.5,41.9,29.42,WSW,244,1.0,7.0,87,0.00,,---,0.00,0.00,VWS V14.01,2013-03-10 23:40:00,
2013-03-11 00:45:00,45.5,41.9,29.43,WSW,249,7.0,7.0,87,0.00,,---,0.00,0.00,VWS V14.01,2013-03-10 23:45:00,
2013-03-11 00:55:00,45.5,41.9,29.43,West,261,4.0,8.0,87,0.00,,---,0.00,0.00,VWS V14.01,2013-03-10 23:55:00,
2013-03-11 01:00:00,45.5,41.9,29.43,WSW,240,4.0,5.0,87,0.00,,---,0.00,0.00,VWS V14.01,2013-03-11 00:00:00,
2013-03-11 01:10:00,45.5,41.9,29.43,West,259,3.0,5.0,87,0.00,,---,0.00,0.00,VWS V14.01,2013-03-11 00:10:00,
2013-03-11 01:20:00,45.4,41.8,29.43,West,268,4.0,6.0,87,0.00,,---,0.00,0.00,VWS V14.01,2013-03-11 00:20:00,
2013-03-11 01:25:00,45.4,41.8,29.43,WSW,256,5.0,8.0,87,0.00,,---,0.00,0.00,VWS V14.01,2013-03-11 00:25:00,
2013-03-11 01:30:00,45.4,41.8,29.44,West,281,4.0,5.0,87,0.00,,---,0.00,0.00,VWS V14.01,2013-03-11 00:30:00,
2013-03-11 01:40:00,45.4,41.8,29.44,WNW,282,2.0,6.0,87,0.00,,---,0.00,0.00,VWS V14.01,2013-03-11 00:40:00,
2013-03-11 01:45:00,45.4,41.8,29.44,North,355,10.0,17.0,87,0.00,,---,0.00,0.00,VWS V14.01,2013-03-11 00:45:00,
2013-03-11 01:50:00,44.3,40.1,29.44,NNW,332,9.0,15.0,85,0.00,,---,0.00,0.00,VWS V14.01,2013-03-11 00:50:00,
2013-03-11 02:00:00,42.0,38.4,29.44,NW,309,5.0,13.0,87,0.00,,---,0.00,0.00,VWS V14.01,2013-03-11 01:00:00,
2013-03-11 02:10:00,41.1,37.8,29.44,North,355,10.0,13.0,88,0.00,,---,0.00,0.00,VWS V14.01,2013-03-11 01:10:00,
2013-03-11 02:20:00,39.7,36.2,29.45,NNW,341,6.0,15.0,87,0.00,,---,0.00,0.00,VWS V14.01,2013-03-11 01:20:00,
2013-03-11 02:25:00,39.0,35.5,29.45,NNW,342,13.0,17.0,87,0.00,,---,0.00,0.00,VWS V14.01,2013-03-11 01:25:00,
2013-03-11 02:30:00,38.4,34.9,29.45,NNE,13,10.0,12.0,87,0.00,,---,0.00,0.00,VWS V14.01,2013-03-11 01:30:00,
2013-03-11 02:35:00,38.0,34.5,29.45,NW,321,9.0,15.0,87,0.00,,---,0.00,0.00,VWS V14.01,2013-03-11 01:35:00,
2013-03-11 02:40:00,37.6,34.1,29.45,NNW,335,8.0,13.0,87,0.00,,---,0.00,0.00,VWS V14.01,2013-03-11 01:40:00,
2013-03-11 02:50:00,36.8,33.3,29.46,NNW,346,5.0,13.0,87,0.01,,---,0.01,0.00,VWS V14.01,2013-03-11 01:50:00,
2013-03-11 02:55:00,36.3,33.1,29.46,North,360,6.0,14.0,88,0.01,,---,0.01,0.00,VWS V14.01,2013-03-11 01:55:00,
2013-03-11 03:00:00,35.9,32.7,29.47,NW,307,6.0,14.0,88,0.01,,---,0.01,0.00,VWS V14.01,2013-03-11 02:00:00,
2013-03-11 03:10:00,35.5,32.3,29.47,ENE,65,4.0,9.0,88,0.01,,---,0.01,0.00,VWS V14.01,2013-03-11 02:10:00,
2013-03-11 03:15:00,35.2,32.3,29.47,NE,37,1.0,8.0,89,0.02,,---,0.02,0.00,VWS V14.01,2013-03-11 02:15:00,
2013-03-11 03:25:00,34.5,31.6,29.47,North,11,6.0,8.0,89,0.02,,---,0.02,0.00,VWS V14.01,2013-03-11 02:25:00,
2013-03-11 03:35:00,34.0,31.1,29.48,NNE,22,2.0,13.0,89,0.02,,---,0.02,0.00,VWS V14.01,2013-03-11 02:35:00,
2013-03-11 03:45:00,33.4,30.5,29.49,NNW,345,5.0,7.0,89,0.03,,---,0.03,0.00,VWS V14.01,2013-03-11 02:45:00,
2013-03-11 03:55:00,33.0,30.4,29.49,NNW,347,6.0,9.0,90,0.02,,---,0.03,0.00,VWS V14.01,2013-03-11 02:55:00,
2013-03-11 04:00:00,32.8,30.2,29.50,NNW,346,4.0,4.0,90,0.02,,---,0.03,0.00,VWS V14.01,2013-03-11 03:00:00,
2013-03-11 04:10:00,32.5,30.2,29.50,NE,41,5.0,7.0,91,0.03,,---,0.04,0.00,VWS V14.01,2013-03-11 03:10:00,
2013-03-11 04:20:00,32.3,30.0,29.50,NNE,22,2.0,4.0,91,0.02,,---,0.04,0.00,VWS V14.01,2013-03-11 03:20:00,
2013-03-11 04:25:00,32.3,30.0,29.50,NNW,337,9.0,9.0,91,0.03,,---,0.05,0.00,VWS V14.01,2013-03-11 03:25:00,
2013-03-11 04:35:00,32.1,29.8,29.50,NNE,19,5.0,6.0,91,0.02,,---,0.05,0.00,VWS V14.01,2013-03-11 03:35:00,
2013-03-11 04:45:00,31.9,29.6,29.50,NNE,28,3.0,11.0,91,0.02,,---,0.06,0.00,VWS V14.01,2013-03-11 03:45:00,
2013-03-11 04:50:00,31.6,29.3,29.50,NNE,28,6.0,12.0,91,0.02,,---,0.06,0.00,VWS V14.01,2013-03-11 03:50:00,
2013-03-11 04:55:00,31.4,29.1,29.50,NNE,28,5.0,5.0,91,0.02,,---,0.06,0.00,VWS V14.01,2013-03-11 03:55:00,
2013-03-11 05:00:00,31.3,29.2,29.51,NNE,28,8.0,8.0,92,0.02,,---,0.06,0.00,VWS V14.01,2013-03-11 04:00:00,
2013-03-11 05:05:00,31.1,28.8,29.51,NNE,28,6.0,6.0,91,0.03,,---,0.06,0.00,VWS V14.01,2013-03-11 04:05:00,
2013-03-11 05:10:00,30.9,28.9,29.51,NNE,28,1.0,4.0,92,0.03,,---,0.06,0.00,VWS V14.01,2013-03-11 04:10:00,
2013-03-11 05:15:00,30.8,28.8,29.51,NNE,28,7.0,9.0,92,0.02,,---,0.06,0.00,VWS V14.01,2013-03-11 04:15:00,
2013-03-11 05:20:00,30.7,28.7,29.51,NNE,28,1.0,5.0,92,0.02,,---,0.06,0.00,VWS V14.01,2013-03-11 04:20:00,
2013-03-11 05:30:00,30.6,28.6,29.52,NNE,28,3.0,8.0,92,0.02,,---,0.06,0.00,VWS V14.01,2013-03-11 04:30:00,
2013-03-11 05:35:00,30.5,28.5,29.52,NNE,28,2.0,6.0,92,0.02,,---,0.06,0.00,VWS V14.01,2013-03-11 04:35:00,
2013-03-11 05:45:00,30.3,28.3,29.53,NNE,28,5.0,9.0,92,0.02,,---,0.06,0.00,VWS V14.01,2013-03-11 04:45:00,
2013-03-11 05:50:00,30.1,28.1,29.53,NNE,28,0.0,5.0,92,0.01,,---,0.06,0.00,VWS V14.01,2013-03-11 04:50:00,
2013-03-11 05:55:00,30.0,28.0,29.53,NNE,28,0.0,7.0,92,0.01,,---,0.06,0.00,VWS V14.01,2013-03-11 04:55:00,
2013-03-11 06:00:00,29.8,27.8,29.53,NNE,28,5.0,14.0,92,0.01,,---,0.06,0.00,VWS V14.01,2013-03-11 05:00:00,
2013-03-11 06:10:00,29.3,27.0,29.53,NNE,28,6.0,11.0,91,0.00,,---,0.06,0.00,VWS V14.01,2013-03-11 05:10:00,
2013-03-11 06:15:00,29.0,26.7,29.53,NNE,28,3.0,7.0,91,0.00,,---,0.06,0.00,VWS V14.01,2013-03-11 05:15:00,
2013-03-11 06:20:00,28.8,26.5,29.53,NNE,28,4.0,4.0,91,0.00,,---,0.06,0.00,VWS V14.01,2013-03-11 05:20:00,
2013-03-11 06:25:00,28.8,26.5,29.53,NNE,28,5.0,7.0,91,0.00,,---,0.06,0.00,VWS V14.01,2013-03-11 05:25:00,
2013-03-11 06:30:00,28.8,26.5,29.54,NNE,28,1.0,7.0,91,0.00,,---,0.06,0.00,VWS V14.01,2013-03-11 05:30:00,
2013-03-11 06:40:00,28.8,26.5,29.54,NNE,28,5.0,9.0,91,0.00,,---,0.06,0.00,VWS V14.01,2013-03-11 05:40:00,
2013-03-11 06:45:00,28.6,26.0,29.55,NNE,28,1.0,7.0,90,0.00,,---,0.06,0.00,VWS V14.01,2013-03-11 05:45:00,
2013-03-11 06:50:00,28.6,26.0,29.55,NNE,28,4.0,6.0,90,0.00,,---,0.06,5.00,VWS V14.01,2013-03-11 05:50:00,
2013-03-11 07:00:00,28.5,25.7,29.55,NNE,28,3.0,13.0,89,0.00,,---,0.06,9.00,VWS V14.01,2013-03-11 06:00:00,
2013-03-11 07:05:00,28.4,25.6,29.55,NNE,28,3.0,7.0,89,0.00,,---,0.06,11.00,VWS V14.01,2013-03-11 06:05:00,
2013-03-11 07:15:00,28.3,25.2,29.56,NNE,28,6.0,8.0,88,0.00,,---,0.06,11.00,VWS V14.01,2013-03-11 06:15:00,
2013-03-11 07:20:00,28.3,24.9,29.56,NNE,28,5.0,11.0,87,0.00,,---,0.06,11.00,VWS V14.01,2013-03-11 06:20:00,
2013-03-11 07:25:00,28.3,24.9,29.56,NNE,28,5.0,11.0,87,0.00,,---,0.06,12.00,VWS V14.01,2013-03-11 06:25:00,
2013-03-11 07:30:00,28.3,24.9,29.56,NNE,28,5.0,5.0,87,0.00,,---,0.06,16.00,VWS V14.01,2013-03-11 06:30:00,
2013-03-11 07:35:00,28.3,24.9,29.56,NNE,28,5.0,6.0,87,0.00,,---,0.06,18.00,VWS V14.01,2013-03-11 06:35:00,
2013-03-11 07:40:00,28.3,24.9,29.56,NNE,28,0.0,4.0,87,0.00,,---,0.06,23.00,VWS V14.01,2013-03-11 06:40:00,
2013-03-11 07:50:00,28.4,25.0,29.56,NNE,28,6.0,11.0,87,0.00,,---,0.06,21.00,VWS V14.01,2013-03-11 06:50:00,
2013-03-11 07:55:00,28.1,24.5,29.56,NNE,28,10.0,12.0,86,0.00,,---,0.06,19.00,VWS V14.01,2013-03-11 06:55:00,
2013-03-11 08:00:00,28.1,24.5,29.57,NNE,28,5.0,8.0,86,0.00,,---,0.06,19.00,VWS V14.01,2013-03-11 07:00:00,
2013-03-11 08:10:00,27.9,24.3,29.57,NNE,28,2.0,11.0,86,0.00,,---,0.06,37.00,VWS V14.01,2013-03-11 07:10:00,
2013-03-11 08:20:00,27.8,23.9,29.58,NNE,28,5.0,7.0,85,0.00,,---,0.06,53.00,VWS V14.01,2013-03-11 07:20:00,
2013-03-11 08:25:00,27.8,23.9,29.58,NNE,28,5.0,10.0,85,0.00,,---,0.06,58.00,VWS V14.01,2013-03-11 07:25:00,
2013-03-11 08:30:00,27.9,24.3,29.58,NNE,28,5.0,10.0,86,0.00,,---,0.06,67.00,VWS V14.01,2013-03-11 07:30:00,
2013-03-11 08:35:00,28.0,24.4,29.58,NNE,28,7.0,11.0,86,0.00,,---,0.06,76.00,VWS V14.01,2013-03-11 07:35:00,
2013-03-11 08:45:00,28.0,24.1,29.58,NNE,28,4.0,6.0,85,0.00,,---,0.06,76.00,VWS V14.01,2013-03-11 07:45:00,
2013-03-11 08:50:00,28.1,24.5,29.58,NNE,28,3.0,6.0,86,0.00,,---,0.06,81.00,VWS V14.01,2013-03-11 07:50:00,
2013-03-11 08:55:00,28.3,24.7,29.58,NNE,28,0.0,4.0,86,0.00,,---,0.06,84.00,VWS V14.01,2013-03-11 07:55:00,
2013-03-11 09:00:00,28.4,24.8,29.59,NNE,28,0.0,4.0,86,0.00,,---,0.06,90.00,VWS V14.01,2013-03-11 08:00:00,
2013-03-11 09:10:00,28.5,24.6,29.59,NNE,28,4.0,5.0,85,0.00,,---,0.06,107.00,VWS V14.01,2013-03-11 08:10:00,
2013-03-11 09:15:00,28.5,24.6,29.59,NNE,28,10.0,10.0,85,0.00,,---,0.06,102.00,VWS V14.01,2013-03-11 08:15:00,
2013-03-11 09:20:00,28.7,24.8,29.59,NNE,28,4.0,5.0,85,0.00,,---,0.06,95.00,VWS V14.01,2013-03-11 08:20:00,
2013-03-11 09:25:00,28.6,24.7,29.59,NNE,28,3.0,13.0,85,0.00,,---,0.06,116.00,VWS V14.01,2013-03-11 08:25:00,
2013-03-11 09:30:00,28.3,24.1,29.59,NNE,28,4.0,7.0,84,0.00,,---,0.06,111.00,VWS V14.01,2013-03-11 08:30:00,
2013-03-11 09:40:00,28.3,24.1,29.59,NNE,28,4.0,4.0,84,0.00,,---,0.06,139.00,VWS V14.01,2013-03-11 08:40:00,
2013-03-11 09:45:00,28.4,24.2,29.60,NNE,28,5.0,7.0,84,0.00,,---,0.06,134.00,VWS V14.01,2013-03-11 08:45:00,
2013-03-11 09:50:00,28.8,24.6,29.60,NNE,28,2.0,10.0,84,0.00,,---,0.06,134.00,VWS V14.01,2013-03-11 08:50:00,
2013-03-11 09:55:00,28.8,24.6,29.60,NNE,28,3.0,8.0,84,0.00,,---,0.06,137.00,VWS V14.01,2013-03-11 08:55:00,
2013-03-11 10:05:00,28.6,24.4,29.60,NNE,28,2.0,6.0,84,0.00,,---,0.06,135.00,VWS V14.01,2013-03-11 09:05:00,
2013-03-11 10:10:00,28.8,24.6,29.60,NNE,28,1.0,11.0,84,0.00,,---,0.06,167.00,VWS V14.01,2013-03-11 09:10:00,
2013-03-11 10:20:00,29.0,24.8,29.61,NNE,28,3.0,9.0,84,0.00,,---,0.06,142.00,VWS V14.01,2013-03-11 09:20:00,
2013-03-11 10:25:00,29.0,24.5,29.61,NNE,28,11.0,11.0,83,0.00,,---,0.06,118.00,VWS V14.01,2013-03-11 09:25:00,
2013-03-11 10:30:00,29.3,24.8,29.60,NNE,28,4.0,8.0,83,0.00,,---,0.06,162.00,VWS V14.01,2013-03-11 09:30:00,
2013-03-11 10:35:00,29.4,24.9,29.60,NNE,28,1.0,5.0,83,0.00,,---,0.06,163.00,VWS V14.01,2013-03-11 09:35:00,
2013-03-11 10:40:00,29.3,24.5,29.60,NNE,28,6.0,10.0,82,0.00,,---,0.06,162.00,VWS V14.01,2013-03-11 09:40:00,
2013-03-11 10:45:00,29.4,24.6,29.60,NNE,28,7.0,10.0,82,0.00,,---,0.06,146.00,VWS V14.01,2013-03-11 09:45:00,
2013-03-11 10:50:00,29.5,24.7,29.60,NNE,28,6.0,12.0,82,0.00,,---,0.06,213.00,VWS V14.01,2013-03-11 09:50:00,
2013-03-11 11:00:00,29.4,24.6,29.61,NNE,28,7.0,10.0,82,0.00,,---,0.06,153.00,VWS V14.01,2013-03-11 10:00:00,
2013-03-11 11:10:00,29.4,24.3,29.61,NNE,28,5.0,11.0,81,0.00,,---,0.06,179.00,VWS V14.01,2013-03-11 10:10:00,
2013-03-11 11:15:00,29.1,24.3,29.61,NNE,28,1.0,7.0,82,0.00,,---,0.06,192.00,VWS V14.01,2013-03-11 10:15:00,
2013-03-11 11:20:00,29.0,24.2,29.61,NNE,28,5.0,8.0,82,0.00,,---,0.06,195.00,VWS V14.01,2013-03-11 10:20:00,
2013-03-11 11:25:00,28.8,24.0,29.61,NNE,28,11.0,11.0,82,0.00,,---,0.06,158.00,VWS V14.01,2013-03-11 10:25:00,
2013-03-11 11:30:00,29.1,24.3,29.61,NNE,28,2.0,7.0,82,0.00,,---,0.06,153.00,VWS V14.01,2013-03-11 10:30:00,
2013-03-11 11:35:00,29.4,24.9,29.61,NNE,28,3.0,9.0,83,0.00,,---,0.06,195.00,VWS V14.01,2013-03-11 10:35:00,
2013-03-11 11:40:00,29.0,23.9,29.61,NNE,28,5.0,10.0,81,0.00,,---,0.06,172.00,VWS V14.01,2013-03-11 10:40:00,
2013-03-11 11:45:00,29.1,24.3,29.61,NNE,28,11.0,11.0,82,0.00,,---,0.06,176.00,VWS V14.01,2013-03-11 10:45:00,
2013-03-11 11:50:00,29.2,24.4,29.61,NNE,28,2.0,4.0,82,0.00,,---,0.06,144.00,VWS V14.01,2013-03-11 10:50:00,
2013-03-11 12:00:00,29.9,25.1,29.62,NNE,28,3.0,9.0,82,0.00,,---,0.06,111.00,VWS V14.01,2013-03-11 11:00:00,
2013-03-11 12:10:00,29.8,25.0,29.62,NNE,28,0.0,5.0,82,0.00,,---,0.06,107.00,VWS V14.01,2013-03-11 11:10:00,
2013-03-11 12:15:00,29.6,24.8,29.62,NNE,28,1.0,6.0,82,0.00,,---,0.06,107.00,VWS V14.01,2013-03-11 11:15:00,
2013-03-11 12:20:00,29.8,25.3,29.62,NNE,28,5.0,11.0,83,0.00,,---,0.06,148.00,VWS V14.01,2013-03-11 11:20:00,
2013-03-11 12:25:00,29.8,25.0,29.62,NNE,28,4.0,6.0,82,0.00,,---,0.06,142.00,VWS V14.01,2013-03-11 11:25:00,
2013-03-11 12:30:00,29.8,25.0,29.62,NNE,28,3.0,6.0,82,0.00,,---,0.06,127.00,VWS V14.01,2013-03-11 11:30:00,
2013-03-11 12:35:00,29.7,24.9,29.62,NNE,28,5.0,7.0,82,0.00,,---,0.06,149.00,VWS V14.01,2013-03-11 11:35:00,
2013-03-11 12:40:00,29.6,24.5,29.62,NNE,28,4.0,9.0,81,0.00,,---,0.06,162.00,VWS V14.01,2013-03-11 11:40:00,
2013-03-11 12:50:00,29.1,24.0,29.62,NNE,28,6.0,10.0,81,0.00,,---,0.06,165.00,VWS V14.01,2013-03-11 11:50:00,
2013-03-11 12:55:00,29.0,23.9,29.62,NNE,28,6.0,8.0,81,0.00,,---,0.06,162.00,VWS V14.01,2013-03-11 11:55:00,
2013-03-11 13:00:00,29.2,24.1,29.62,NNE,28,9.0,11.0,81,0.00,,---,0.06,185.00,VWS V14.01,2013-03-11 12:00:00,
2013-03-11 13:10:00,29.6,24.5,29.62,NNE,28,2.0,5.0,81,0.00,,---,0.06,116.00,VWS V14.01,2013-03-11 12:10:00,
2013-03-11 13:15:00,29.7,24.6,29.63,NNE,28,2.0,9.0,81,0.00,,---,0.06,98.00,VWS V14.01,2013-03-11 12:15:00,
2013-03-11 13:20:00,29.8,24.7,29.63,NNE,28,2.0,5.0,81,0.00,,---,0.06,105.00,VWS V14.01,2013-03-11 12:20:00,
2013-03-11 13:25:00,29.9,24.8,29.63,NNE,28,1.0,4.0,81,0.00,,---,0.06,104.00,VWS V14.01,2013-03-11 12:25:00,
2013-03-11 13:35:00,29.9,24.8,29.62,NNE,28,4.0,5.0,81,0.00,,---,0.06,120.00,VWS V14.01,2013-03-11 12:35:00,
2013-03-11 13:40:00,29.4,24.3,29.62,NNE,28,2.0,6.0,81,0.00,,---,0.06,155.00,VWS V14.01,2013-03-11 12:40:00,
2013-03-11 13:45:00,29.4,24.3,29.63,NNE,28,2.0,5.0,81,0.00,,---,0.06,149.00,VWS V14.01,2013-03-11 12:45:00,
2013-03-11 13:55:00,29.7,24.6,29.63,NNE,28,0.0,5.0,81,0.00,,---,0.06,174.00,VWS V14.01,2013-03-11 12:55:00,
2013-03-11 14:00:00,29.7,24.6,29.63,NNE,28,9.0,9.0,81,0.00,,---,0.06,135.00,VWS V14.01,2013-03-11 13:00:00,
2013-03-11 14:10:00,29.8,24.7,29.63,NNE,28,6.0,10.0,81,0.00,,---,0.06,179.00,VWS V14.01,2013-03-11 13:10:00,
2013-03-11 14:15:00,30.0,24.9,29.62,NNE,28,4.0,7.0,81,0.00,,---,0.06,183.00,VWS V14.01,2013-03-11 13:15:00,
2013-03-11 14:20:00,29.5,24.1,29.62,NNE,28,3.0,6.0,80,0.00,,---,0.06,160.00,VWS V14.01,2013-03-11 13:20:00,
2013-03-11 14:25:00,29.7,24.6,29.62,NNE,28,5.0,9.0,81,0.00,,---,0.06,146.00,VWS V14.01,2013-03-11 13:25:00,
2013-03-11 14:30:00,30.0,24.9,29.63,NNE,28,2.0,4.0,81,0.00,,---,0.06,135.00,VWS V14.01,2013-03-11 13:30:00,
2013-03-11 14:35:00,29.7,24.3,29.63,NNE,28,1.0,5.0,80,0.00,,---,0.06,128.00,VWS V14.01,2013-03-11 13:35:00,
2013-03-11 14:40:00,30.3,25.2,29.63,NNE,28,3.0,6.0,81,0.00,,---,0.06,113.00,VWS V14.01,2013-03-11 13:40:00,
2013-03-11 14:45:00,29.9,24.2,29.63,NNE,28,3.0,6.0,79,0.00,,---,0.06,118.00,VWS V14.01,2013-03-11 13:45:00,
2013-03-11 14:50:00,30.1,24.7,29.63,NNE,28,6.0,8.0,80,0.00,,---,0.06,98.00,VWS V14.01,2013-03-11 13:50:00,
2013-03-11 14:55:00,30.3,24.9,29.63,NNE,28,2.0,9.0,80,0.00,,---,0.06,114.00,VWS V14.01,2013-03-11 13:55:00,
2013-03-11 15:05:00,30.1,24.7,29.63,NNE,28,5.0,7.0,80,0.00,,---,0.06,142.00,VWS V14.01,2013-03-11 14:05:00,
2013-03-11 15:10:00,30.3,24.6,29.63,NNE,28,6.0,9.0,79,0.00,,---,0.06,130.00,VWS V14.01,2013-03-11 14:10:00,
2013-03-11 15:15:00,30.2,24.5,29.63,NNE,28,7.0,10.0,79,0.00,,---,0.06,149.00,VWS V14.01,2013-03-11 14:15:00,
2013-03-11 15:25:00,30.0,24.3,29.63,NNE,28,8.0,10.0,79,0.00,,---,0.06,144.00,VWS V14.01,2013-03-11 14:25:00,
2013-03-11 15:35:00,29.9,24.5,29.63,NNE,28,4.0,10.0,80,0.00,,---,0.06,127.00,VWS V14.01,2013-03-11 14:35:00,
2013-03-11 15:40:00,30.0,24.6,29.63,NNE,28,7.0,8.0,80,0.00,,---,0.06,134.00,VWS V14.01,2013-03-11 14:40:00,
2013-03-11 15:45:00,29.8,24.1,29.63,NNE,28,4.0,9.0,79,0.00,,---,0.06,118.00,VWS V14.01,2013-03-11 14:45:00,
2013-03-11 15:50:00,30.1,24.7,29.63,NNE,28,7.0,7.0,80,0.00,,---,0.06,98.00,VWS V14.01,2013-03-11 14:50:00,
2013-03-11 15:55:00,30.0,24.3,29.63,NNE,28,4.0,10.0,79,0.00,,---,0.06,84.00,VWS V14.01,2013-03-11 14:55:00,
2013-03-11 16:05:00,30.1,24.7,29.63,NNE,28,2.0,5.0,80,0.00,,---,0.06,84.00,VWS V14.01,2013-03-11 15:05:00,
2013-03-11 16:10:00,30.1,24.7,29.63,NNE,28,5.0,6.0,80,0.00,,---,0.06,74.00,VWS V14.01,2013-03-11 15:10:00,
2013-03-11 16:15:00,30.2,24.8,29.63,NNE,28,4.0,10.0,80,0.00,,---,0.06,74.00,VWS V14.01,2013-03-11 15:15:00,
2013-03-11 16:20:00,30.0,24.6,29.63,NNE,28,10.0,12.0,80,0.00,,---,0.06,69.00,VWS V14.01,2013-03-11 15:20:00,
2013-03-11 16:25:00,30.0,24.6,29.63,NNE,28,0.0,3.0,80,0.00,,---,0.06,67.00,VWS V14.01,2013-03-11 15:25:00,
2013-03-11 16:30:00,29.9,24.5,29.64,NNE,28,6.0,9.0,80,0.00,,---,0.06,60.00,VWS V14.01,2013-03-11 15:30:00,
2013-03-11 16:35:00,29.9,24.2,29.64,NNE,28,5.0,7.0,79,0.00,,---,0.06,62.00,VWS V14.01,2013-03-11 15:35:00,
2013-03-11 16:40:00,29.9,24.2,29.64,NNE,28,3.0,6.0,79,0.00,,---,0.06,56.00,VWS V14.01,2013-03-11 15:40:00,
2013-03-11 16:50:00,29.7,24.0,29.63,NNE,28,5.0,7.0,79,0.00,,---,0.06,49.00,VWS V14.01,2013-03-11 15:50:00,
2013-03-11 16:55:00,29.4,23.7,29.63,NNE,28,5.0,9.0,79,0.00,,---,0.06,46.00,VWS V14.01,2013-03-11 15:55:00,
2013-03-11 17:05:00,29.3,23.6,29.63,NNE,28,4.0,11.0,79,0.00,,---,0.06,33.00,VWS V14.01,2013-03-11 16:05:00,
2013-03-11 17:15:00,29.2,23.8,29.63,NNE,28,0.0,7.0,80,0.00,,---,0.06,25.00,VWS V14.01,2013-03-11 16:15:00,
2013-03-11 17:25:00,29.2,23.8,29.63,NNE,28,4.0,6.0,80,0.00,,---,0.06,18.00,VWS V14.01,2013-03-11 16:25:00,
2013-03-11 17:30:00,28.8,23.1,29.64,NNE,28,8.0,9.0,79,0.00,,---,0.06,16.00,VWS V14.01,2013-03-11 16:30:00,
2013-03-11 17:40:00,28.6,23.2,29.64,NNE,28,0.0,5.0,80,0.00,,---,0.06,11.00,VWS V14.01,2013-03-11 16:40:00,
2013-03-11 17:45:00,28.7,23.6,29.64,NNE,28,10.0,13.0,81,0.00,,---,0.06,7.00,VWS V14.01,2013-03-11 16:45:00,
2013-03-11 17:50:00,28.8,24.0,29.64,NNE,28,3.0,8.0,82,0.00,,---,0.06,5.00,VWS V14.01,2013-03-11 16:50:00,
2013-03-11 17:55:00,28.7,23.6,29.64,NNE,28,4.0,9.0,81,0.00,,---,0.06,0.00,VWS V14.01,2013-03-11 16:55:00,
2013-03-11 18:00:00,28.6,23.8,29.64,NNE,28,2.0,9.0,82,0.00,,---,0.06,0.00,VWS V14.01,2013-03-11 17:00:00,
2013-03-11 18:10:00,28.4,23.6,29.64,NNE,28,1.0,5.0,82,0.00,,---,0.06,0.00,VWS V14.01,2013-03-11 17:10:00,
2013-03-11 18:15:00,28.4,23.6,29.64,NNE,28,3.0,9.0,82,0.00,,---,0.06,0.00,VWS V14.01,2013-03-11 17:15:00,
2013-03-11 18:25:00,28.1,23.3,29.64,NNE,28,4.0,11.0,82,0.00,,---,0.06,0.00,VWS V14.01,2013-03-11 17:25:00,
2013-03-11 18:35:00,28.1,23.6,29.65,NNE,28,2.0,2.0,83,0.00,,---,0.06,0.00,VWS V14.01,2013-03-11 17:35:00,
2013-03-11 18:45:00,28.0,23.5,29.65,NNE,28,6.0,9.0,83,0.00,,---,0.06,0.00,VWS V14.01,2013-03-11 17:45:00,
2013-03-11 18:50:00,27.9,23.4,29.65,NNE,28,2.0,6.0,83,0.00,,---,0.06,0.00,VWS V14.01,2013-03-11 17:50:00,
2013-03-11 18:55:00,27.8,23.3,29.65,NNE,28,5.0,5.0,83,0.00,,---,0.06,0.00,VWS V14.01,2013-03-11 17:55:00,
2013-03-11 19:00:00,27.6,23.1,29.65,NNE,28,7.0,7.0,83,0.00,,---,0.06,0.00,VWS V14.01,2013-03-11 18:00:00,
2013-03-11 19:10:00,27.6,23.1,29.65,NNE,28,5.0,5.0,83,0.00,,---,0.06,0.00,VWS V14.01,2013-03-11 18:10:00,
2013-03-11 19:20:00,27.6,23.1,29.65,NNE,28,0.0,5.0,83,0.00,,---,0.06,0.00,VWS V14.01,2013-03-11 18:20:00,
2013-03-11 19:25:00,27.6,23.4,29.65,NNE,28,5.0,5.0,84,0.00,,---,0.06,0.00,VWS V14.01,2013-03-11 18:25:00,
2013-03-11 19:35:00,27.6,23.4,29.65,NNE,28,0.0,4.0,84,0.00,,---,0.06,0.00,VWS V14.01,2013-03-11 18:35:00,
2013-03-11 19:45:00,27.4,23.2,29.65,NNE,28,0.0,3.0,84,0.00,,---,0.06,0.00,VWS V14.01,2013-03-11 18:45:00,
2013-03-11 19:50:00,27.3,22.8,29.65,NNE,28,2.0,5.0,83,0.00,,---,0.06,0.00,VWS V14.01,2013-03-11 18:50:00,
2013-03-11 20:00:00,27.3,23.1,29.65,NNE,28,0.0,7.0,84,0.00,,---,0.06,0.00,VWS V14.01,2013-03-11 19:00:00,
2013-03-11 20:05:00,27.2,23.0,29.65,NNE,28,6.0,6.0,84,0.00,,---,0.06,0.00,VWS V14.01,2013-03-11 19:05:00,
2013-03-11 20:10:00,27.1,22.9,29.65,NNE,28,5.0,5.0,84,0.00,,---,0.06,0.00,VWS V14.01,2013-03-11 19:10:00,
2013-03-11 20:15:00,27.1,22.9,29.66,NNE,28,3.0,4.0,84,0.00,,---,0.06,0.00,VWS V14.01,2013-03-11 19:15:00,
2013-03-11 20:25:00,27.1,22.9,29.66,NNE,28,0.0,5.0,84,0.00,,---,0.06,0.00,VWS V14.01,2013-03-11 19:25:00,
2013-03-11 20:35:00,27.1,22.9,29.66,NNE,28,5.0,6.0,84,0.00,,---,0.06,0.00,VWS V14.01,2013-03-11 19:35:00,
2013-03-11 20:45:00,27.2,23.0,29.66,NNE,28,2.0,3.0,84,0.00,,---,0.06,0.00,VWS V14.01,2013-03-11 19:45:00,
2013-03-11 20:50:00,27.3,23.1,29.66,NNE,28,5.0,6.0,84,0.00,,---,0.06,0.00,VWS V14.01,2013-03-11 19:50:00,
2013-03-11 20:55:00,27.2,23.0,29.66,NNE,28,4.0,6.0,84,0.00,,---,0.06,0.00,VWS V14.01,2013-03-11 19:55:00,
2013-03-11 21:05:00,27.1,22.9,29.66,NNE,28,3.0,6.0,84,0.00,,---,0.06,0.00,VWS V14.01,2013-03-11 20:05:00,
2013-03-11 21:15:00,27.0,22.8,29.66,NNE,28,3.0,6.0,84,0.00,,---,0.06,0.00,VWS V14.01,2013-03-11 20:15:00,
2013-03-11 21:20:00,27.0,22.8,29.66,NNE,28,2.0,5.0,84,0.00,,---,0.06,0.00,VWS V14.01,2013-03-11 20:20:00,
2013-03-11 21:25:00,27.1,22.9,29.66,NNE,28,4.0,5.0,84,0.00,,---,0.06,0.00,VWS V14.01,2013-03-11 20:25:00,
2013-03-11 21:30:00,27.1,22.9,29.66,NNE,28,0.0,3.0,84,0.00,,---,0.06,0.00,VWS V14.01,2013-03-11 20:30:00,
2013-03-11 21:35:00,27.1,22.9,29.66,NNE,28,2.0,6.0,84,0.00,,---,0.06,0.00,VWS V14.01,2013-03-11 20:35:00,
2013-03-11 21:40:00,27.0,22.8,29.66,NNE,28,4.0,4.0,84,0.00,,---,0.06,0.00,VWS V14.01,2013-03-11 20:40:00,
2013-03-11 21:50:00,26.9,22.7,29.66,NNE,28,3.0,9.0,84,0.00,,---,0.06,0.00,VWS V14.01,2013-03-11 20:50:00,
2013-03-11 21:55:00,26.9,22.7,29.66,NNE,28,0.0,3.0,84,0.00,,---,0.06,0.00,VWS V14.01,2013-03-11 20:55:00,
2013-03-11 22:05:00,26.7,22.5,29.66,NNE,28,4.0,6.0,84,0.00,,---,0.06,0.00,VWS V14.01,2013-03-11 21:05:00,
2013-03-11 22:10:00,26.7,22.5,29.66,NNE,28,3.0,4.0,84,0.00,,---,0.06,0.00,VWS V14.01,2013-03-11 21:10:00,
2013-03-11 22:15:00,26.8,22.6,29.66,NNE,28,4.0,5.0,84,0.00,,---,0.06,0.00,VWS V14.01,2013-03-11 21:15:00,
2013-03-11 22:20:00,26.9,22.7,29.66,NNE,28,2.0,2.0,84,0.00,,---,0.06,0.00,VWS V14.01,2013-03-11 21:20:00,
2013-03-11 22:25:00,26.9,22.7,29.66,NNE,28,0.0,2.0,84,0.00,,---,0.06,0.00,VWS V14.01,2013-03-11 21:25:00,
2013-03-11 22:30:00,26.8,22.3,29.66,NNE,28,0.0,4.0,83,0.00,,---,0.06,0.00,VWS V14.01,2013-03-11 21:30:00,
2013-03-11 22:40:00,26.8,22.6,29.66,NNE,28,0.0,5.0,84,0.00,,---,0.06,0.00,VWS V14.01,2013-03-11 21:40:00,
2013-03-11 22:45:00,26.9,22.7,29.66,NNE,28,3.0,6.0,84,0.00,,---,0.06,0.00,VWS V14.01,2013-03-11 21:45:00,
2013-03-11 22:50:00,26.9,22.7,29.66,NNE,28,0.0,4.0,84,0.00,,---,0.06,0.00,VWS V14.01,2013-03-11 21:50:00,
2013-03-11 22:55:00,27.0,22.8,29.66,NNE,28,4.0,4.0,84,0.00,,---,0.06,0.00,VWS V14.01,2013-03-11 21:55:00,
2013-03-11 23:00:00,27.0,22.8,29.66,NNE,28,3.0,3.0,84,0.00,,---,0.06,0.00,VWS V14.01,2013-03-11 22:00:00,
2013-03-11 23:10:00,26.9,22.4,29.66,NNE,28,5.0,5.0,83,0.00,,---,0.06,0.00,VWS V14.01,2013-03-11 22:10:00,
2013-03-11 23:15:00,26.8,22.3,29.66,NNE,28,0.0,1.0,83,0.00,,---,0.06,0.00,VWS V14.01,2013-03-11 22:15:00,
2013-03-11 23:20:00,26.7,22.2,29.66,NNE,28,3.0,3.0,83,0.00,,---,0.06,0.00,VWS V14.01,2013-03-11 22:20:00,
2013-03-11 23:25:00,26.7,22.2,29.66,NNE,28,3.0,4.0,83,0.00,,---,0.06,0.00,VWS V14.01,2013-03-11 22:25:00,
2013-03-11 23:30:00,26.7,22.2,29.65,NNE,28,0.0,5.0,83,0.00,,---,0.06,0.00,VWS V14.01,2013-03-11 22:30:00,
2013-03-11 23:35:00,26.8,22.3,29.65,NNE,28,0.0,0.0,83,0.00,,---,0.06,0.00,VWS V14.01,2013-03-11 22:35:00,
2013-03-11 23:40:00,26.9,22.4,29.65,NNE,28,0.0,0.0,83,0.00,,---,0.06,0.00,VWS V14.01,2013-03-11 22:40:00,
2013-03-11 23:50:00,27.0,22.5,29.65,NNE,28,1.0,4.0,83,0.00,,---,0.06,0.00,VWS V14.01,2013-03-11 22:50:00,
2013-03-11 23:55:00,27.0,22.5,29.65,NNE,28,2.0,4.0,83,0.00,,---,0.06,0.00,VWS V14.01,2013-03-11 22:55:00,